sat.trackr.live / text

‹ back to catalog

ONEWEB-0336

NORAD 49202 · 2021-083S

PAYLOAD ACTIVE UNKNOWN

§ Identity

Operator
Country
UK
Launch date
2021-09-14
Launch site
TYMSC
Launch vehicle
Mass (kg)
RCS (m²)

Purposes: comms

External: N2YO · Heavens-Above · Gunter

§ Orbital elements

Epoch: 2026-09-19T08:06:43.509312Z

Period
109.63 min
Inclination
87.8918°
Eccentricity
0.0002033
Mean motion
13.13468275 rev/d
Perigee alt
1,208.2 km
Apogee alt
1,211.3 km
Semi-major
7,587.9 km
B*
6.3291e-4
RAAN
301.4918°
Arg perigee
104.2175°
Mean anomaly
255.9180°
Rev number
24,327

§ Raw data

ONEWEB-03361 49202U 21083S   26262.33800358  .00000244  00000+0  63291-3 0  99922 49202  87.8918 301.4918 0002033 104.2175 255.9180 13.13468275243272

JSON: /api/v1/satellites/49202 · /tle

For live sub-satellite position, see the globe view (requires WebGL).

§ Visibility from observer

Set your observer location to see the next 7 days of passes ≥ 10°. The values pass through the URL so the page stays shareable.

No JS? Fill the form by hand. The geolocation button needs JavaScript.